Regional Weather Roundup
Issued by NWS Goodland, KS

Home | Current Version | Previous Version | Text Only | Print | Product List | Glossary On
Versions: 1 2 3 4 5 6 7 8 9 10 11 12 13 14 15 16 17 18 19 20 21 22 23 24 25 26 27 28 29 30 31 32 33 34 35 36 37 38 39 40 41 42 43 44 45 46 47 48 49 50
000
ASUS43 KGLD 230808
RWRGLD

GOODLAND FORECAST AREA HOURLY WEATHER ROUNDUP
NATIONAL WEATHER SERVICE GOODLAND KS
100 AM MST THU FEB 23 2017

...OFFICIAL OBSERVATIONS...

CITY           SKY/WX    TMP DP  RH WIND       PRES   REMARKS
GOODLAND KS    CLOUDY    42  25  50 E13       29.66S
HILL CITY KS   CLOUDY    45  31  58 E12       29.70S
IMPERIAL NEB   CLEAR     36  31  82 NE17      29.74S
MCCOOK NEB     CLEAR     37  30  75 NE12      29.72S
AKRON CO       CLEAR     32  24  72 E16G24    29.68F
BURLINGTON CO  CLOUDY    44  22  41 E15       29.65F
LIMON CO       CLOUDY    25  16  68 W5        29.66F
$$

...UNOFFICIAL OBSERVATIONS...

CITY           SKY/WX    TMP DP  RH WIND       PRES   REMARKS
LENORA KS        N/A     42  32  68 NE7         N/A
NORTON KS      CLEAR     39  27  60 NE8       29.72R
SHARON SPRINGS   N/A     47  26  43 E8G15       N/A
TRENTON NEB      N/A     38  32  79 NE9         N/A
KIT CARSON CO    N/A     44  25  46 MISG        N/A
YUMA CO        FAIR      32  23  69 NE15      29.69F
$$




USA.gov is the U.S. government's official web portal to all federal, state and local government web resources and services.